Flag for Germany Weather past 2 weeks in Ilmenau, Thuringia, Germany

Now
39 °F

Clear.


Feels Like: 30 °F
Forecast: 35 / 39 °F
Wind: 17 mph from Southwest

Location: Erfurt-Bindersleben

Current Time: Dec 20, 2014 at 2:06:36 AM

Latest Report: Dec 20, 2014 at 1:20 AM


Visibility: 10 mi

Pressure: 30.04 "Hg

Humidity: 81%

Dew point: 34 °F

Location of IlmenauLocation

Historic Weather in Ilmenau — Graph

°F

Ilmenau temperature yesterday

Maximum temperature yesterday: 54 °F (at 12:20 AM)
Minimum temperature yesterday: 39 °F (at 10:20 PM)
Average temperature yesterday: 48 °F

Past Weeks' High & Low Weather Summary

 TemperatureHumidityPressure
High54 °F (Dec 18, 8:20 PM)100% (Dec 5, 12:20 AM)30.36 "Hg (Dec 5, 12:20 AM)
Low25 °F (Dec 9, 1:20 AM)75% (Dec 7, 12:50 PM)29.47 "Hg (Dec 12, 5:50 PM)
Average38 °F91%29.94 "Hg
* Reported Dec 5 12:20 AM — Dec 20 12:50 AM, Ilmenau, Weather by CustomWeather, © 2014

Note: Actual official high and low records may vary slightly from our data, if they occured in-between our weather recording intervals... More about our weather records

Advertising

Ilmenau weather history for previous 24 hours

 ConditionsComfort  
Time TempWeatherWind HumidityBarometerVisibility
12:50 AM
Dec 20
39 °FPassing clouds.14 mph81%30.04 "HgN/A
12:20 AM39 °FPassing clouds.17 mph81%30.04 "HgN/A
11:50 PM
Dec 19
39 °FPassing clouds.12 mph81%30.01 "HgN/A
11:20 PM39 °FPassing clouds.12 mph87%30.01 "HgN/A
10:50 PM39 °FPassing clouds.16 mph81%30.01 "HgN/A
10:20 PM39 °FClear.13 mph81%29.98 "Hg10 mi
9:50 PM41 °FClear.9 mph76%29.98 "Hg10 mi
9:20 PM41 °FClear.10 mph81%29.95 "Hg10 mi
8:50 PM41 °FClear.16 mph81%29.95 "Hg10 mi
8:20 PM43 °FClear.17 mph81%29.92 "Hg10 mi
7:50 PM45 °FPassing clouds.18 mph81%29.92 "HgN/A
7:20 PM46 °FPartly cloudy.17 mph87%29.89 "HgN/A
6:50 PM46 °FPartly cloudy.12 mph87%29.86 "HgN/A
6:20 PM46 °FPartly cloudy.15 mph87%29.86 "HgN/A
5:50 PM46 °FLight rain. Partly cloudy.20 mph82%29.83 "HgN/A
5:20 PM46 °FSprinkles. Passing clouds.16 mph93%29.86 "HgN/A
4:50 PM50 °FLight rain. Passing clouds.21 mph88%29.80 "HgN/A
4:20 PM50 °FLight rain. Partly cloudy.21 mph88%29.80 "HgN/A
3:50 PM50 °FLight rain. Broken clouds.22 mph88%29.77 "HgN/A
3:20 PM50 °FLight rain. Broken clouds.23 mph88%29.80 "HgN/A
2:50 PM50 °FLight rain. Broken clouds.24 mph88%29.77 "HgN/A
2:20 PM50 °FLight rain. Broken clouds.22 mph82%29.80 "HgN/A
1:50 PM50 °FLight rain. Broken clouds.23 mph88%29.77 "HgN/A
1:20 PM50 °FLight rain. Broken clouds.23 mph88%29.80 "HgN/A
12:50 PM50 °FLight rain. Broken clouds.23 mph88%29.80 "HgN/A
12:20 PM50 °FLight rain. Broken clouds.23 mph88%29.83 "HgN/A
11:50 AM50 °FLight rain. More clouds than sun.25 mph88%29.80 "HgN/A
11:20 AM50 °FLight rain. Broken clouds.26 mph82%29.83 "HgN/A
10:50 AM50 °FPartly sunny.29 mph82%29.83 "HgN/A
10:20 AM50 °FBroken clouds.26 mph82%29.80 "HgN/A
9:50 AM50 °FBroken clouds.21 mph82%29.83 "HgN/A
9:20 AM50 °FPartly sunny.23 mph82%29.83 "HgN/A
8:50 AM50 °FPartly sunny.22 mph82%29.83 "HgN/A
8:20 AM50 °FPartly sunny.26 mph82%29.83 "HgN/A
7:50 AM50 °FPassing clouds.24 mph82%29.83 "HgN/A
7:20 AM52 °FPassing clouds.21 mph77%29.86 "HgN/A
6:50 AM50 °FPartly cloudy.20 mph82%29.86 "HgN/A
6:20 AM50 °FPassing clouds.18 mph82%29.86 "HgN/A
5:50 AM52 °FPassing clouds.20 mph77%29.86 "HgN/A
5:20 AM52 °FPassing clouds.22 mph77%29.86 "HgN/A
4:20 AM52 °FPassing clouds.23 mph82%29.86 "HgN/A
3:50 AM52 °FPassing clouds.22 mph82%29.89 "HgN/A
3:20 AM52 °FPassing clouds.23 mph82%29.86 "HgN/A
2:50 AM52 °FPassing clouds.22 mph82%29.89 "HgN/A
2:20 AM52 °FPassing clouds.23 mph82%29.86 "HgN/A
Weather by CustomWeather, © 2014

See weather overviewHow to use our weather pages